�N����,����,�~����,�C��,���x,�C��,����,���ϕ���,�ő�u�ԕ���,�ő厞����,���˗�,�I�_���x,�n�����x,�ő啗���N��,DTYPE
"18/06/02","00:10",0.0,15.1,83.7,1010.4,322.7,2.5,3.4,316.6,0.00,12.4,18.9,"00:00:48",1
"18/06/02","00:20",0.0,15.0,84.1,1010.2,315.7,2.2,4.4,330.2,0.00,12.4,18.9,"00:15:28",1
"18/06/02","00:30",0.0,15.0,84.4,1010.2,326.7,2.6,3.9,310.2,0.00,12.4,18.8,"00:29:36",1
"18/06/02","00:40",0.0,14.9,84.5,1010.2,327.5,2.5,3.9,310.9,0.00,12.4,18.7,"00:34:00",1
"18/06/02","00:50",0.0,14.5,85.2,1010.2,331.9,1.7,3.2,337.9,0.00,12.1,18.6,"00:42:00",1
"18/06/02","01:00",0.0,14.3,86.5,1010.2,335.5,1.6,2.8,321.0,0.00,12.1,18.5,"00:52:32",1
"18/06/02","01:10",0.0,14.1,87.5,1010.0,326.9,1.5,3.1,339.1,0.00,12.1,18.6,"01:09:04",1
"18/06/02","01:20",0.0,14.1,88.2,1010.2,334.3,1.5,2.8,334.0,0.00,12.2,18.5,"01:10:02",1
"18/06/02","01:30",0.0,14.0,88.4,1010.0,330.8,2.1,3.6,335.3,0.00,12.2,18.7,"01:29:44",1
"18/06/02","01:40",0.0,14.1,88.5,1010.0,330.8,2.2,5.0,318.4,0.00,12.3,18.4,"01:30:24",1
"18/06/02","01:50",0.0,14.1,88.8,1010.0,322.8,1.8,3.4,314.8,0.00,12.3,18.4,"01:40:40",1
"18/06/02","02:00",0.0,14.2,88.8,1010.2,334.3,2.2,5.0,338.3,0.00,12.4,18.3,"01:54:40",1
"18/06/02","02:10",0.0,14.2,88.8,1010.2,327.0,2.2,4.1,316.8,0.00,12.4,18.5,"02:02:08",1
"18/06/02","02:20",0.0,14.2,88.6,1010.2,334.8,2.2,4.0,323.2,0.00,12.4,18.2,"02:14:08",1
"18/06/02","02:30",0.0,14.0,88.9,1010.4,337.9,1.8,3.6,336.8,0.00,12.2,18.2,"02:25:52",1
"18/06/02","02:40",0.0,14.1,89.3,1010.0,329.2,2.2,4.3,333.7,0.00,12.4,18.3,"02:34:48",1
"18/06/02","02:50",0.0,13.9,89.4,1010.2,330.5,2.0,4.3,315.0,0.00,12.2,18.2,"02:44:24",1
"18/06/02","03:00",0.0,13.8,89.8,1010.4,322.3,1.8,3.4,327.5,0.00,12.2,17.8,"02:58:56",1
"18/06/02","03:10",0.0,13.6,89.8,1010.4,328.1,2.0,3.9,325.7,0.00,12.0,18.1,"03:08:32",1
"18/06/02","03:20",0.0,13.5,90.1,1010.2,329.9,2.1,4.0,340.3,0.00,12.0,18.1,"03:13:20",1
"18/06/02","03:30",0.0,13.7,90.3,1010.2,327.4,2.3,4.7,331.1,0.00,12.2,18.0,"03:20:02",1
"18/06/02","03:40",0.0,13.7,90.3,1010.4,330.8,2.5,4.1,325.2,0.00,12.2,18.1,"03:30:24",1
"18/06/02","03:50",0.0,13.6,90.3,1010.4,327.4,2.6,3.6,331.8,0.00,12.1,17.8,"03:46:08",1
"18/06/02","04:00",0.0,13.5,90.4,1010.4,320.5,2.5,3.5,323.0,0.00,12.0,17.8,"03:54:40",1
"18/06/02","04:10",0.0,13.4,90.5,1010.7,326.3,3.1,4.5,335.2,0.00,11.9,17.7,"04:01:12",1
"18/06/02","04:20",0.0,13.4,90.5,1010.7,327.2,2.3,4.4,330.5,0.00,11.9,17.9,"04:14:48",1
"18/06/02","04:30",0.0,13.1,90.8,1010.7,329.3,1.8,2.9,344.0,0.00,11.7,17.7,"04:21:36",1
"18/06/02","04:40",0.0,12.8,91.0,1010.9,336.0,1.8,3.6,332.8,0.00,11.4,17.6,"04:34:02",1
"18/06/02","04:50",0.0,12.7,91.2,1010.4,327.7,1.6,3.2,335.3,0.00,11.3,17.7,"04:49:54",1
"18/06/02","05:00",0.0,12.8,91.6,1010.7,325.7,2.0,3.2,333.5,0.00,11.5,17.7,"04:55:48",1
"18/06/02","05:10",0.0,12.8,91.6,1010.7,324.1,2.0,3.1,321.3,0.00,11.5,17.7,"05:00:16",1
"18/06/02","05:20",0.0,12.8,91.9,1011.2,326.7,2.2,3.4,340.0,0.00,11.6,17.6,"05:12:26",1
"18/06/02","05:30",0.0,13.1,92.3,1011.4,322.4,2.1,4.4,334.9,0.00,11.9,17.7,"05:28:56",1
"18/06/02","05:40",0.0,13.1,92.3,1010.9,330.5,2.1,4.2,332.5,0.00,11.9,17.5,"05:32:48",1
"18/06/02","05:50",0.0,13.3,92.4,1011.4,325.3,2.5,4.3,313.2,0.00,12.1,17.5,"05:42:08",1
"18/06/02","06:00",0.0,13.4,92.6,1011.4,330.4,2.2,4.3,341.1,0.01,12.3,17.5,"05:51:04",1
"18/06/02","06:10",0.0,13.8,92.3,1011.2,330.1,2.7,4.1,322.5,0.03,12.6,17.5,"06:07:28",1
"18/06/02","06:20",0.0,14.1,91.7,1011.4,327.6,3.1,5.2,327.8,0.04,12.8,17.4,"06:13:44",1
"18/06/02","06:30",0.0,14.4,91.0,1011.6,331.6,3.1,5.0,333.2,0.06,13.0,17.5,"06:22:16",1
"18/06/02","06:40",0.0,14.9,90.3,1011.4,330.1,3.0,4.4,344.7,0.08,13.4,17.5,"06:34:48",1
"18/06/02","06:50",0.0,15.3,88.9,1011.4,326.7,2.3,4.2,342.3,0.10,13.5,17.5,"06:40:56",1
"18/06/02","07:00",0.0,15.8,86.9,1011.9,327.8,1.7,3.9,339.3,0.12,13.7,17.5,"06:53:20",1
"18/06/02","07:10",0.0,16.4,84.1,1011.6,334.1,1.5,3.3,344.7,0.14,13.7,17.7,"07:09:44",1
"18/06/02","07:20",0.0,17.5,81.3,1012.1,318.2,1.2,2.4,325.7,0.17,14.3,17.5,"07:11:20",1
"18/06/02","07:30",0.0,18.0,79.8,1011.9,325.8,1.3,2.7,338.7,0.19,14.5,17.7,"07:20:02",1
"18/06/02","07:40",0.0,17.9,78.0,1011.9,307.3,1.5,3.2,345.0,0.22,14.1,17.9,"07:31:04",1
"18/06/02","07:50",0.0,18.6,77.1,1011.6,328.4,0.7,1.6,1.0,0.24,14.6,17.9,"07:40:56",1
"18/06/02","08:00",0.0,18.4,76.2,1011.6,263.5,0.8,1.9,233.7,0.27,14.2,18.2,"07:54:40",1
"18/06/02","08:10",0.0,19.2,73.2,1011.2,85.7,0.6,1.4,127.1,0.29,14.3,18.2,"08:05:36",1
"18/06/02","08:20",0.0,20.1,71.5,1010.9,117.7,0.5,1.7,101.7,0.32,14.8,18.3,"08:11:04",1
"18/06/02","08:30",0.0,20.4,70.4,1010.9,206.2,0.7,1.8,130.2,0.34,14.9,18.5,"08:20:32",1
"18/06/02","08:40",0.0,20.4,66.0,1010.9,7.6,0.3,1.8,117.7,0.36,13.9,18.7,"08:31:20",1
"18/06/02","08:50",0.0,20.9,67.0,1010.4,63.1,0.7,2.7,117.5,0.38,14.6,19.0,"08:49:20",1
"18/06/02","09:00",0.0,21.9,64.2,1010.7,33.2,0.6,1.8,113.8,0.40,14.9,19.0,"08:50:32",1
"18/06/02","09:10",0.0,21.7,62.0,1010.2,106.2,0.6,2.0,18.8,0.42,14.1,19.2,"09:05:52",1
"18/06/02","09:20",0.0,21.7,64.1,1010.2,51.7,0.7,1.8,33.5,0.44,14.7,19.3,"09:17:44",1
"18/06/02","09:30",0.0,22.1,65.1,1009.3,176.3,0.8,2.4,181.8,0.46,15.3,19.4,"09:26:24",1
"18/06/02","09:40",0.0,22.4,62.6,1009.3,166.9,1.0,2.9,163.2,0.48,15.0,19.7,"09:30:08",1
"18/06/02","09:50",0.0,23.4,59.4,1009.3,136.9,1.0,2.2,147.5,0.50,15.1,20.2,"09:40:56",1
"18/06/02","10:00",0.0,23.1,60.0,1009.5,136.3,0.8,2.8,123.4,0.51,15.0,20.2,"09:53:04",1
"18/06/02","10:10",0.0,23.7,58.4,1009.5,229.4,0.7,1.9,343.5,0.53,15.1,20.4,"10:01:36",1
"18/06/02","10:20",0.0,23.3,56.5,1009.5,189.6,1.3,2.7,191.0,0.54,14.2,20.8,"10:13:20",1
"18/06/02","10:30",0.0,24.5,57.4,1009.5,199.8,0.6,1.7,201.9,0.55,15.6,21.0,"10:26:00",1
"18/06/02","10:40",0.0,24.4,53.5,1009.7,166.3,0.6,1.4,341.7,0.56,14.4,21.3,"10:32:00",1
"18/06/02","10:50",0.0,24.8,53.4,1010.2,169.4,0.8,2.2,225.3,0.57,14.7,21.5,"10:44:56",1
"18/06/02","11:00",0.0,24.3,55.0,1009.7,196.3,1.3,2.6,179.2,0.58,14.7,21.4,"10:56:56",1
"18/06/02","11:10",0.0,24.9,55.3,1009.7,194.4,1.2,3.3,204.1,0.59,15.4,21.9,"11:07:20",1
"18/06/02","11:20",0.0,25.2,52.0,1009.5,212.8,1.3,2.8,216.4,0.59,14.7,22.1,"11:16:00",1
"18/06/02","11:30",0.0,25.3,52.4,1009.5,238.5,1.1,3.1,226.1,0.60,14.9,22.3,"11:28:16",1
"18/06/02","11:40",0.0,26.0,49.6,1009.7,198.0,0.7,1.8,203.1,0.60,14.7,22.6,"11:35:28",1
"18/06/02","11:50",0.0,26.0,50.4,1009.0,133.6,1.3,3.4,133.0,0.60,14.9,22.6,"11:49:52",1
"18/06/02","12:00",0.0,26.3,49.3,1009.3,171.1,1.0,2.5,45.9,0.61,14.9,22.9,"11:50:08",1
"18/06/02","12:10",0.0,26.5,47.4,1009.3,143.1,1.1,3.2,172.0,0.61,14.5,23.2,"12:02:32",1
"18/06/02","12:20",0.0,26.9,51.5,1008.8,142.9,1.3,3.4,122.8,0.61,16.1,23.3,"12:15:44",1
"18/06/02","12:30",0.0,26.8,48.2,1009.0,138.8,1.5,3.1,122.9,0.61,15.0,23.7,"12:29:28",1
"18/06/02","12:40",0.0,27.3,44.9,1008.8,140.0,1.2,2.7,118.7,0.60,14.3,23.8,"12:34:00",1
"18/06/02","12:50",0.0,27.3,43.1,1008.8,138.9,1.5,3.4,195.2,0.60,13.7,23.9,"12:45:20",1
"18/06/02","13:00",0.0,28.0,41.4,1009.0,102.7,1.0,2.2,10.3,0.60,13.7,24.1,"12:56:00",1
"18/06/02","13:10",0.0,27.7,39.5,1008.6,96.9,1.1,2.6,120.0,0.59,12.7,24.2,"13:04:24",1
"18/06/02","13:20",0.0,28.4,42.5,1008.8,131.1,1.1,3.4,125.0,0.59,14.5,23.9,"13:10:24",1
"18/06/02","13:30",0.0,28.4,36.0,1008.6,73.2,1.3,2.7,35.4,0.58,11.9,23.9,"13:22:24",1
"18/06/02","13:40",0.0,28.5,36.3,1008.8,59.6,1.2,2.8,26.3,0.57,12.2,23.7,"13:31:28",1
"18/06/02","13:50",0.0,28.6,35.8,1008.8,81.1,1.3,3.1,5.8,0.56,12.0,23.7,"13:49:28",1
"18/06/02","14:00",0.0,28.7,32.7,1008.3,92.6,1.2,2.9,89.2,0.55,10.8,23.8,"13:54:48",1
"18/06/02","14:10",0.0,28.7,34.0,1008.6,2.9,1.2,3.2,335.3,0.54,11.3,23.9,"14:07:28",1
"18/06/02","14:20",0.0,28.6,36.5,1008.1,150.6,1.0,2.7,160.7,0.52,12.3,23.7,"14:19:28",1
"18/06/02","14:30",0.0,28.9,32.5,1008.1,72.2,1.1,2.2,79.9,0.51,10.8,23.8,"14:20:56",1
"18/06/02","14:40",0.0,28.7,33.6,1008.1,127.9,2.0,3.7,129.9,0.49,11.2,23.8,"14:32:24",1
"18/06/02","14:50",0.0,28.5,36.3,1007.6,131.3,1.6,3.7,121.9,0.48,12.2,24.3,"14:45:52",1
"18/06/02","15:00",0.0,28.9,33.8,1007.4,167.5,1.2,2.6,135.0,0.46,11.4,24.2,"14:51:52",1
"18/06/02","15:10",0.0,28.8,34.3,1007.1,190.4,2.0,5.1,209.2,0.44,11.6,24.4,"15:05:12",1
"18/06/02","15:20",0.0,28.8,32.8,1007.1,279.9,1.6,3.1,307.8,0.42,10.9,24.1,"15:16:08",1
"18/06/02","15:30",0.0,28.6,37.5,1007.1,174.2,1.6,3.4,220.6,0.40,12.7,24.4,"15:25:20",1
"18/06/02","15:40",0.0,28.8,32.7,1006.9,105.8,1.0,2.1,93.1,0.38,10.8,24.2,"15:30:48",1
"18/06/02","15:50",0.0,29.4,32.7,1006.7,80.8,0.8,4.1,135.6,0.36,11.4,24.4,"15:49:52",1
"18/06/02","16:00",0.0,29.0,33.8,1006.9,191.0,2.0,4.2,218.1,0.34,11.5,24.4,"15:57:20",1
"18/06/02","16:10",0.0,29.5,33.0,1006.4,152.2,1.2,4.3,229.0,0.31,11.6,24.3,"16:09:12",1
"18/06/02","16:20",0.0,29.0,34.7,1006.4,166.6,1.7,4.1,146.6,0.29,11.9,24.3,"16:18:00",1
"18/06/02","16:30",0.0,29.4,34.1,1006.0,181.9,1.0,3.3,137.8,0.27,12.0,24.2,"16:20:48",1
"18/06/02","16:40",0.0,29.4,34.5,1006.7,227.2,1.2,3.4,226.8,0.24,12.2,24.2,"16:37:20",1
"18/06/02","16:50",0.0,29.5,33.6,1006.2,198.9,0.8,2.0,143.5,0.22,11.9,24.0,"16:48:32",1
"18/06/02","17:00",0.0,29.1,33.6,1006.4,202.8,1.7,3.7,196.2,0.17,11.5,24.3,"16:52:32",1
"18/06/02","17:10",0.0,28.8,32.7,1006.2,207.3,1.7,3.6,215.7,0.03,10.8,23.9,"17:04:08",1
"18/06/02","17:20",0.0,28.5,32.7,1006.2,197.3,1.8,5.2,195.8,0.02,10.6,23.9,"17:19:04",1
"18/06/02","17:30",0.0,28.4,34.7,1005.7,196.9,1.7,4.5,223.2,0.02,11.4,24.2,"17:20:08",1
"18/06/02","17:40",0.0,28.0,33.7,1005.7,200.3,2.0,4.0,213.9,0.02,10.6,24.2,"17:38:08",1
"18/06/02","17:50",0.0,27.9,34.6,1005.5,218.9,1.7,3.6,217.3,0.01,10.9,23.9,"17:45:12",1
"18/06/02","18:00",0.0,27.7,34.6,1006.0,213.0,1.6,3.6,215.2,0.01,10.7,23.9,"17:53:44",1
"18/06/02","18:10",0.0,27.2,36.3,1005.7,221.2,1.6,3.2,230.5,0.01,11.0,23.8,"18:01:28",1
"18/06/02","18:20",0.0,26.8,35.8,1005.5,232.5,1.3,3.1,245.1,0.01,10.4,23.6,"18:13:52",1
"18/06/02","18:30",0.0,26.3,36.4,1006.0,238.1,1.2,3.1,232.7,0.01,10.3,23.7,"18:24:00",1
"18/06/02","18:40",0.0,25.8,42.7,1006.0,282.8,0.7,1.7,238.5,0.00,12.2,23.4,"18:31:20",1
"18/06/02","18:50",0.0,25.1,46.8,1006.2,355.2,1.0,2.2,320.3,0.00,13.0,23.4,"18:49:36",1
"18/06/02","19:00",0.0,24.0,50.7,1006.7,333.0,1.1,1.6,330.6,0.00,13.2,23.1,"18:50:32",1
"18/06/02","19:10",0.0,23.1,53.6,1006.9,317.7,1.2,1.7,337.4,0.00,13.2,23.0,"19:00:40",1
"18/06/02","19:20",0.0,22.3,55.6,1006.7,302.8,1.0,1.7,324.1,0.00,13.0,22.9,"19:10:02",1
"18/06/02","19:30",0.0,21.9,57.7,1007.4,335.8,0.8,1.7,328.8,0.00,13.2,22.8,"19:20:08",1
"18/06/02","19:40",0.0,21.4,57.3,1007.4,312.4,0.7,1.7,340.4,0.00,12.7,22.7,"19:37:28",1
"18/06/02","19:50",0.0,21.1,58.0,1007.4,334.2,1.0,1.9,338.3,0.00,12.6,22.5,"19:45:44",1
"18/06/02","20:00",0.0,20.8,60.3,1007.8,344.6,0.5,1.4,321.0,0.00,12.9,22.3,"19:58:32",1
"18/06/02","20:10",0.0,20.3,63.7,1007.8,353.5,0.5,1.7,325.8,0.00,13.2,22.2,"20:04:48",1
"18/06/02","20:20",0.0,20.0,68.1,1008.3,312.8,1.1,2.2,323.7,0.00,14.0,22.1,"20:17:36",1
"18/06/02","20:30",0.0,19.9,67.1,1008.6,332.8,1.8,2.9,334.4,0.00,13.7,21.8,"20:27:12",1
"18/06/02","20:40",0.0,20.2,63.9,1009.3,327.5,2.3,3.5,325.8,0.00,13.2,21.6,"20:34:40",1
"18/06/02","20:50",0.0,19.9,65.0,1009.0,311.5,1.7,4.0,334.8,0.00,13.2,21.7,"20:46:40",1
"18/06/02","21:00",0.0,19.2,66.7,1009.3,287.9,1.1,1.6,310.1,0.00,12.9,21.7,"20:50:02",1
"18/06/02","21:10",0.0,19.3,68.5,1009.5,317.9,2.0,4.1,317.7,0.00,13.4,21.4,"21:04:08",1
"18/06/02","21:20",0.0,19.2,68.8,1009.5,330.6,1.3,2.6,332.4,0.00,13.4,21.2,"21:18:08",1
"18/06/02","21:30",0.0,18.8,69.0,1009.7,285.5,1.1,2.2,307.7,0.00,13.0,21.1,"21:20:40",1
"18/06/02","21:40",0.0,18.5,70.2,1010.0,304.8,1.1,1.7,316.6,0.00,13.0,21.2,"21:39:44",1
"18/06/02","21:50",0.0,18.3,70.3,1010.0,290.7,1.1,1.9,289.1,0.00,12.8,21.2,"21:45:44",1
"18/06/02","22:00",0.0,18.0,71.6,1010.0,300.0,1.3,1.9,308.7,0.00,12.8,20.9,"21:51:28",1
"18/06/02","22:10",0.0,17.8,73.1,1010.0,304.3,1.1,1.8,324.1,0.00,13.0,20.8,"22:08:00",1
"18/06/02","22:20",0.0,17.6,73.9,1010.4,299.6,1.2,2.4,328.1,0.00,12.9,20.8,"22:14:48",1
"18/06/02","22:30",0.0,17.6,74.1,1010.2,288.7,1.1,1.4,308.1,0.00,13.0,20.5,"22:29:36",1
"18/06/02","22:40",0.0,17.5,74.6,1010.4,300.4,1.2,2.2,320.6,0.00,13.0,20.3,"22:35:28",1
"18/06/02","22:50",0.0,17.4,74.4,1010.0,299.9,1.3,2.2,322.3,0.00,12.8,20.4,"22:47:36",1
"18/06/02","23:00",0.0,17.3,74.4,1010.0,301.8,1.1,2.5,329.0,0.00,12.7,20.4,"22:59:04",1
"18/06/02","23:10",0.0,17.1,76.3,1010.0,297.7,1.2,2.7,326.2,0.00,12.9,20.1,"23:05:28",1
"18/06/02","23:20",0.0,17.1,76.3,1009.7,290.6,1.2,2.0,324.4,0.00,12.9,20.1,"23:16:48",1
"18/06/02","23:30",0.0,16.8,76.0,1010.4,286.0,1.0,1.2,318.3,0.00,12.6,20.1,"23:20:32",1
"18/06/02","23:40",0.0,16.6,77.9,1010.0,291.7,1.0,1.3,309.4,0.00,12.8,20.0,"23:30:40",1
"18/06/02","23:50",0.0,16.6,77.6,1010.2,284.1,1.0,1.2,265.1,0.00,12.7,20.1,"23:42:40",1
"18/06/02","24:00",0.0,16.4,78.0,1010.0,299.4,1.1,1.9,312.3,0.00,12.6,19.9,"23:57:12",1
